GFSFLT2_sfc_30mbdewp_195.txt.gz
Dewpoint
69 70 71 70 70 70 70 70 69 70 70 70 69 68 68 69 69 69 69 67 66 65 65 65 65 64 64 63 62 64 62 65
69 69 70 70 70 70 70 70 69 69 69 69 69 68 68 68 69 69 68 67 66 66 66 65 63 63 64 63 62 65 65 66
69 68 69 70 70 70 70 70 69 69 69 69 69 68 68 68 69 69 68 68 67 66 65 64 63 63 63 62 61 64 65 66
68 68 68 69 69 70 69 69 69 69 69 69 68 68 68 68 68 69 69 68 67 66 64 64 63 62 61 61 63 65 66 66
67 68 68 68 68 68 69 69 69 69 69 69 68 67 68 68 68 69 68 68 66 65 64 63 62 62 61 59 64 64 65 66
66 67 67 67 68 67 68 68 69 69 69 68 67 67 67 67 67 67 67 66 65 64 63 62 62 62 61 59 62 64 64 65
65 66 67 67 68 67 67 67 67 68 68 68 67 66 66 66 66 66 66 65 64 63 62 61 61 60 57 61 62 63 64 65
64 65 66 67 67 66 66 66 66 67 67 68 67 66 66 66 65 65 65 65 63 62 61 60 59 57 58 62 62 62 63 63
65 64 65 66 66 66 66 66 66 66 67 67 67 66 66 65 65 65 65 64 63 62 61 60 58 55 59 61 61 61 61 61
66 65 65 65 65 66 66 66 67 67 67 67 67 66 66 66 65 65 65 64 63 62 60 59 57 53 58 59 59 59 57 57
65 65 65 64 64 65 64 65 66 66 66 66 67 66 66 65 66 65 65 64 63 62 60 59 56 52 56 58 58 57 55 54
65 66 65 65 64 65 64 65 65 65 65 66 66 66 65 65 65 65 65 64 63 62 60 58 56 53 56 57 56 56 54 53
65 66 66 65 64 65 64 64 65 65 66 66 66 66 66 65 65 64 64 64 63 61 59 56 52 53 54 54 55 55 53 51
64 65 66 65 65 65 65 65 63 62 62 63 65 66 66 66 65 64 63 62 60 59 57 53 52 54 52 52 50 51 52 52
63 65 66 65 65 62 60 61 59 60 60 60 60 63 64 64 64 62 61 60 59 57 55 54 51 53 54 51 49 49 48 49
62 63 64 63 63 63 62 63 62 60 59 57 56 57 58 60 60 60 59 58 57 56 55 54 53 51 52 52 52 50 47 44
62 62 62 61 62 62 62 61 59 56 57 56 55 54 54 54 56 57 56 56 54 54 54 54 54 52 51 51 50 50 48 45
61 61 60 60 60 60 60 60 57 56 55 55 53 52 52 52 53 53 53 53 53 54 54 54 53 53 51 51 50 48 48 46
60 61 60 61 61 60 60 59 58 57 55 54 51 50 50 51 52 52 52 53 53 53 53 53 53 52 51 51 49 49 49 47
58 58 57 57 57 56 56 56 56 55 53 52 51 50 49 50 50 50 50 51 51 51 51 51 52 51 50 49 49 49 48 48

GFSFLT2_sfc_30mbdewp_198.txt.gz
Dewpoint
68 69 70 70 70 70 69 69 69 69 69 69 69 68 68 68 69 69 68 66 65 64 65 65 65 64 63 62 62 63 61 65
68 68 69 70 69 69 69 69 69 69 69 69 68 68 68 68 69 69 68 66 65 65 65 65 64 64 63 62 62 65 63 66
68 67 68 69 69 69 69 69 68 69 69 69 68 67 68 68 68 68 68 66 65 65 65 64 64 64 63 62 62 64 65 65
67 67 67 67 68 69 69 69 69 69 69 69 68 67 67 68 68 68 68 67 66 66 64 63 63 61 61 61 63 65 65 65
66 67 67 67 67 68 69 69 69 69 68 68 68 67 67 67 67 68 68 67 66 65 64 63 62 61 60 61 64 65 65 66
66 66 67 67 68 68 67 67 68 67 68 68 67 67 67 67 67 66 67 67 65 64 63 62 62 61 60 59 63 64 64 65
64 66 66 67 67 68 67 67 67 67 67 68 67 66 66 66 66 65 65 66 65 63 62 61 61 60 58 59 62 63 64 65
64 65 66 67 66 67 67 67 67 67 67 67 67 66 66 66 65 65 65 65 64 63 62 61 60 58 58 61 62 63 63 64
63 65 66 66 66 67 66 66 66 66 66 67 67 67 66 65 65 64 64 65 64 63 61 60 59 56 59 61 61 62 62 62
64 64 65 66 66 66 66 66 66 66 66 67 66 66 66 65 64 64 64 64 64 62 61 60 58 55 59 60 60 60 59 59
65 64 64 65 66 66 66 65 65 65 66 65 66 66 66 65 65 64 64 64 63 63 61 59 58 54 58 59 59 58 57 56
64 65 64 64 64 65 65 65 65 66 66 66 66 66 66 65 65 65 64 64 63 63 61 59 57 54 58 57 57 56 54 54
62 65 64 64 64 63 63 63 64 64 65 65 66 66 65 65 65 65 64 64 64 63 61 58 55 56 55 54 55 55 54 53
63 65 64 64 64 64 63 63 64 64 64 64 65 65 65 65 64 64 64 64 63 62 60 57 53 56 54 53 50 51 52 52
64 65 65 65 64 62 61 61 61 61 61 62 62 64 65 65 65 64 63 64 62 62 60 58 54 54 55 53 49 49 48 50
64 65 65 64 63 62 63 63 62 61 61 59 59 60 61 62 62 62 62 61 61 60 60 59 56 54 55 53 52 51 48 44
62 62 63 62 63 62 62 61 60 58 58 59 57 55 55 56 58 59 59 59 59 58 57 57 56 55 54 52 51 51 49 45
61 61 60 61 61 61 61 61 59 58 57 57 55 54 54 54 54 55 56 56 56 56 56 56 55 54 54 52 51 49 48 46
60 61 60 60 60 60 60 59 58 58 57 56 55 54 53 52 53 53 53 53 54 54 55 55 54 54 52 52 52 51 50 47
59 59 58 59 58 58 58 57 57 57 56 55 54 53 52 51 52 52 52 52 53 53 53 53 54 53 52 52 51 50 49 47

GFSFLT2_sfc_30mbdewp_201.txt.gz
Dewpoint
68 69 69 70 69 69 68 68 68 68 68 68 69 68 67 68 68 68 67 66 64 64 65 65 65 63 62 61 61 62 61 64
68 68 69 69 69 69 68 68 68 68 68 68 68 67 67 68 68 68 67 65 65 65 65 65 64 63 62 61 64 63 62 65
68 68 68 69 69 69 68 68 68 68 68 68 67 64 65 67 67 68 66 65 65 65 65 64 64 64 62 61 63 62 63 64
66 67 67 68 68 68 68 68 67 67 67 67 66 66 66 65 67 68 67 65 65 65 64 64 63 62 62 61 61 63 64 64
66 66 67 67 67 68 68 68 67 68 68 68 67 66 66 66 66 67 66 66 64 64 63 62 62 62 61 62 63 64 63 64
65 65 66 67 67 67 67 68 68 67 67 68 67 66 66 65 65 66 67 66 65 64 63 63 63 62 61 63 64 64 64 65
64 65 66 66 66 67 67 67 67 67 67 68 67 66 65 65 66 65 66 66 66 65 64 63 62 62 62 61 63 64 65 64
64 65 66 66 66 67 67 67 67 67 67 67 68 66 65 65 65 65 65 66 67 65 64 63 62 61 60 61 62 64 65 65
64 65 66 66 66 67 68 67 67 67 66 67 68 67 67 65 65 64 65 65 67 66 65 63 61 60 60 62 63 64 64 65
63 64 66 66 66 66 66 67 67 67 66 67 67 67 67 66 65 64 64 65 65 65 64 63 61 59 60 61 62 63 63 64
63 64 65 66 66 66 66 66 66 66 66 66 67 67 67 67 65 65 65 65 64 65 64 63 61 58 59 60 61 61 61 61
61 64 65 66 66 66 66 66 66 66 66 66 66 66 66 66 66 66 65 64 64 64 64 63 61 60 58 58 59 58 58 58
58 64 65 65 65 64 63 64 65 65 65 65 66 66 66 66 66 66 66 64 64 64 64 62 57 58 56 55 55 55 55 55
52 63 65 64 64 64 64 64 64 64 64 65 65 66 66 66 66 66 65 65 64 64 62 59 57 58 56 55 51 52 53 53
54 63 64 64 65 64 63 63 63 62 63 63 65 66 66 67 66 66 65 65 64 63 63 60 56 57 57 55 50 50 50 51
63 64 64 65 64 64 63 63 62 62 62 61 62 63 64 65 66 65 65 64 64 64 63 62 59 56 56 56 54 53 50 46
64 64 64 64 64 64 64 63 64 61 61 60 59 58 59 59 60 61 61 62 62 62 60 60 59 58 56 54 53 51 50 47
62 63 62 64 64 64 64 62 60 59 59 59 58 57 57 57 56 57 58 58 58 59 59 59 59 58 57 55 53 51 49 48
61 61 60 62 62 63 63 63 61 61 59 58 57 56 56 55 54 55 56 56 56 56 57 57 57 56 56 54 54 53 51 49
60 60 59 60 60 60 60 61 61 60 59 58 58 58 57 55 54 54 55 56 56 56 57 57 56 56 55 54 53 53 51 49

GFSFLT2_sfc_30mbdewp_204.txt.gz
Dewpoint
66 66 68 70 70 69 68 68 69 69 69 69 69 69 69 70 70 69 68 67 66 65 65 65 65 64 63 62 61 61 59 56
67 66 65 66 67 69 68 68 68 68 68 68 68 67 68 68 68 68 67 65 64 65 65 65 64 63 62 61 63 62 57 58
67 67 66 65 64 67 68 68 68 67 67 67 66 60 63 65 62 66 65 64 64 65 65 64 64 63 62 61 61 56 56 56
66 67 67 67 64 65 65 65 64 63 62 64 60 59 60 59 63 67 65 64 65 65 65 64 63 58 59 60 57 57 57 56
65 66 67 67 64 65 64 63 63 63 63 64 61 62 61 60 62 64 63 64 61 63 63 60 58 59 58 58 59 60 56 56
63 64 65 66 63 64 64 63 63 64 64 65 63 63 62 60 59 60 61 60 59 60 59 59 61 61 61 61 62 60 58 58
62 63 65 65 64 62 63 64 64 64 64 66 64 63 63 61 60 61 62 61 61 61 60 61 61 61 61 61 61 61 61 59
61 63 65 65 65 64 64 65 64 65 64 65 66 63 63 63 63 62 61 64 62 61 60 61 61 60 62 62 61 61 61 60
60 63 65 66 66 66 66 64 65 65 64 65 66 65 64 63 63 63 62 63 64 62 63 63 61 62 60 61 61 62 62 62
58 62 64 66 66 67 66 64 65 65 64 65 67 66 65 65 63 63 64 63 64 62 62 61 61 60 59 60 61 62 63 64
53 62 63 66 66 66 66 65 66 65 65 65 67 67 67 66 64 64 64 64 64 61 61 61 60 60 59 61 61 61 62 63
48 58 63 65 66 66 65 65 65 65 64 64 65 67 67 67 65 64 65 64 63 62 61 62 60 60 60 61 61 61 61 62
44 52 62 65 65 64 64 63 64 64 64 65 65 66 67 67 67 67 66 65 64 64 63 62 63 63 60 57 57 58 58 59
55 50 61 65 64 64 65 65 66 65 66 66 66 66 66 66 66 66 66 65 65 65 63 62 62 61 59 56 53 53 54 55
55 50 61 64 64 65 64 65 65 65 65 65 66 66 66 66 66 66 66 66 66 65 64 63 60 60 59 56 51 51 52 53
53 53 62 63 65 64 64 63 62 63 64 65 65 66 66 66 66 66 66 66 66 65 65 64 62 58 58 57 56 54 51 48
61 61 62 64 65 64 64 63 63 63 64 64 64 64 64 63 65 65 65 65 65 65 64 63 62 59 57 56 54 53 51 48
64 63 63 64 64 64 64 64 64 63 63 62 61 61 61 61 60 61 61 61 62 62 62 62 61 61 59 56 54 52 50 49
63 62 63 64 65 65 65 64 64 63 62 62 60 60 61 61 60 61 61 60 60 61 61 60 60 60 59 57 57 56 53 52
62 62 62 63 63 63 64 64 64 64 62 61 61 61 61 60 59 58 59 59 59 60 60 59 59 59 58 58 56 56 53 51